FW7181 Weather Reports


time (UTC)temp
F
wind
direction
speed
knots
gust
knots
rain 1hr
in
rain 24hr
in
rain mn
in
humidity
%
barometer
mb
20260509212549 59 176 4.3 6.1 0.00 0.42 0.42 74 1007.1
20260509212046 60 177 6.1 7.8 0.00 0.42 0.42 74 1006.8
20260509211541 60 194 7.8 9.6 0.00 0.42 0.42 75 1007.2
20260509211038 60 159 4.3 5.2 0.00 0.42 0.42 75 1007.1
20260509210535 59 184 10.4 14.8 0.00 0.42 0.42 78 1007.0
20260509210031 58 169 7.8 11.3 0.00 0.42 0.42 78 1007.1
20260509205526 59 170 9.6 12.2 0.00 0.42 0.42 78 1007.1
20260509205022 59 153 6.1 8.7 0.00 0.42 0.42 79 1007.4
20260509204518 58 162 2.6 4.3 0.00 0.42 0.42 81 1007.5
20260509204015 57 178 4.3 7.0 0.00 0.42 0.42 83 1007.6
20260509203510 57 152 3.5 7.0 0.00 0.42 0.42 83 1007.5
20260509203009 57 181 7.0 8.7 0.00 0.42 0.42 83 1007.6
20260509202503 57 226 7.8 9.6 0.00 0.42 0.42 85 1007.4
20260509201959 56 171 4.3 5.2 0.00 0.42 0.42 85 1007.6
20260509201454 56 192 4.3 6.1 0.00 0.42 0.42 85 1007.5
20260509200952 56 157 6.1 8.7 0.00 0.42 0.42 86 1007.7
20260509200446 55 203 7.0 9.6 0.00 0.42 0.42 86 1008.0
20260509195943 55 168 4.3 7.0 0.00 0.42 0.42 87 1008.3
20260509195439 55 175 5.2 6.1 0.00 0.42 0.42 88 1008.1
20260509194938 55 222 5.2 6.1 0.00 0.42 0.42 89 1008.0
20260509194434 55 235 5.2 6.1 0.00 0.42 0.42 89 1008.0
20260509193931 55 199 8.7 11.3 0.00 0.42 0.42 89 1008.1
20260509193431 54 196 7.0 8.7 0.00 0.42 0.42 90 1008.1
20260509192927 54 170 7.0 7.8 0.00 0.42 0.42 91 1008.1
20260509192424 54 174 4.3 6.1 0.00 0.42 0.42 92 1008.3
20260509191919 54 190 6.1 7.0 0.00 0.42 0.42 92 1008.4
20260509191414 53 184 3.5 5.2 0.00 0.42 0.42 94 1008.3
20260509190911 53 174 5.2 7.0 0.00 0.42 0.42 95 1008.4
20260509190408 52 194 2.6 4.3 0.07 0.42 0.42 95 1008.4
20260509185905 52 176 4.3 5.2 0.07 0.42 0.42 95 1008.5
20260509185403 52 169 2.6 4.3 0.00 0.41 0.41 95 1008.5
20260509184859 52 202 2.6 4.3 0.00 0.41 0.41 95 1008.6
20260509184356 52 126 3.5 4.3 0.00 0.41 0.41 95 1008.3
20260509183854 52 190 3.5 5.2 0.00 0.41 0.41 96 1008.4
20260509183348 52 200 5.2 7.0 0.00 0.41 0.41 96 1008.3
20260509182844 51 207 4.3 7.0 0.00 0.41 0.41 96 1008.6
20260509182341 51 172 5.2 7.0 0.00 0.41 0.41 96 1008.3
20260509181838 51 171 6.1 7.8 0.00 0.41 0.41 96 1008.4
20260509181336 51 111 3.5 5.2 0.00 0.41 0.41 96 1008.4
20260509180833 51 187 2.6 4.3 0.00 0.41 0.41 97 1008.6
20260509180329 51 166 6.1 6.1 0.00 0.41 0.41 97 1008.3
20260509175826 51 145 0.9 0.9 0.00 0.41 0.41 97 1008.4
20260509175322 51 170 5.2 7.8 0.00 0.41 0.41 97 1008.4
20260509174818 51 162 4.3 6.1 0.00 0.41 0.41 97 1008.4
20260509174314 51 201 6.1 7.0 0.00 0.41 0.41 97 1008.4
20260509173810 51 180 2.6 4.3 0.00 0.41 0.41 97 1008.3
20260509173305 51 172 4.3 7.8 0.00 0.41 0.41 97 1008.4
20260509172801 51 153 5.2 7.0 0.00 0.41 0.41 97 1008.2
20260509172259 51 175 6.1 7.0 0.00 0.41 0.41 97 1008.1
20260509171754 51 178 7.0 7.8 0.00 0.41 0.41 97 1008.2
20260509171250 51 167 3.5 4.3 0.00 0.41 0.41 97 1008.1
20260509170747 51 189 5.2 7.0 0.00 0.41 0.41 97 1008.3
20260509170243 51 197 4.3 6.1 0.00 0.41 0.41 97 1008.5
20260509165742 50 183 5.2 7.8 0.00 0.41 0.41 97 1008.3
20260509165237 51 182 6.1 11.3 0.00 0.41 0.41 97 1008.2
20260509164734 51 178 4.3 6.1 0.00 0.41 0.41 97 1008.2
20260509164229 50 160 6.1 7.8 0.00 0.41 0.41 97 1008.2
20260509163727 50 181 4.3 7.0 0.00 0.41 0.41 97 1008.2
20260509163223 50 183 7.0 9.6 0.00 0.41 0.41 97 1008.1
20260509162721 50 158 5.2 6.1 0.00 0.41 0.41 97 1008.2
20260509162216 50 162 5.2 7.0 0.00 0.41 0.41 97 1008.0
20260509161712 50 153 6.1 7.0 0.00 0.41 0.41 97 1008.1
20260509161208 50 190 7.8 9.6 0.00 0.41 0.41 97 1007.9
20260509160703 50 169 4.3 5.2 0.00 0.41 0.41 97 1008.0
20260509160200 50 196 5.2 5.2 0.00 0.41 0.41 97 1007.9
20260509155655 50 118 4.3 7.0 0.00 0.41 0.41 97 1007.9
20260509155152 50 160 3.5 4.3 0.00 0.41 0.41 97 1008.0
20260509154647 50 181 6.1 7.8 0.00 0.41 0.41 97 1007.7
20260509154145 50 185 3.5 4.3 0.00 0.41 0.41 97 1008.1
20260509153642 50 230 2.6 2.6 0.00 0.41 0.41 97 1008.0
20260509153139 50 164 0.9 1.7 0.00 0.41 0.41 98 1008.1
20260509152634 50 220 2.6 4.3 0.00 0.41 0.41 98 1007.9
20260509152132 50 208 5.2 7.0 0.05 0.41 0.41 98 1007.9
20260509151628 50 187 2.6 2.6 0.05 0.41 0.41 98 1008.1
20260509151126 50 173 4.3 7.0 0.07 0.40 0.40 98 1008.1
20260509150623 50 158 4.3 5.2 0.07 0.40 0.40 98 1008.1
20260509150121 49 160 3.5 4.3 0.05 0.39 0.39 98 1008.2
20260509145617 49 168 4.3 5.2 0.12 0.39 0.39 98 1008.2
20260509145112 49 160 2.6 2.6 0.07 0.38 0.38 98 1008.4
20260509144610 49 160 2.6 2.6 0.12 0.38 0.38 98 1008.3
20260509144106 49 239 4.3 5.2 0.12 0.37 0.37 98 1008.3
20260509143603 49 189 1.7 4.3 0.12 0.36 0.36 98 1008.3
20260509143101 49 174 2.6 4.3 0.12 0.36 0.36 98 1008.4
20260509142556 49 159 2.6 4.3 0.07 0.34 0.34 98 1008.4
20260509142053 49 183 3.5 4.3 0.07 0.34 0.34 98 1008.3
20260509141549 49 168 2.6 4.3 0.00 0.33 0.33 98 1008.4
20260509141046 49 172 5.2 7.0 0.05 0.33 0.33 98 1008.3
20260509140543 49 197 2.6 4.3 0.12 0.33 0.33 98 1008.5
20260509140041 48 224 5.2 7.0 0.12 0.32 0.32 98 1008.4
20260509135537 48 175 3.5 4.3 0.05 0.31 0.31 98 1008.6
20260509135035 48 162 4.3 5.2 0.07 0.30 0.30 98 1008.5
20260509134532 48 178 7.0 7.8 0.07 0.30 0.30 98 1008.4
20260509134030 48 99 4.3 5.2 0.00 0.29 0.29 98 1008.6
20260509133526 48 183 3.5 5.2 0.00 0.29 0.29 98 1008.4
20260509133024 48 129 2.6 5.2 0.00 0.29 0.29 97 1008.6
20260509132522 48 174 3.5 5.2 0.07 0.29 0.29 97 1008.4
20260509132020 48 159 3.5 5.2 0.07 0.29 0.29 97 1008.6
20260509131516 48 283 4.3 6.1 0.00 0.28 0.28 97 1008.7
20260509131013 48 183 4.3 5.2 0.00 0.28 0.28 97 1008.6
20260509130508 48 201 7.8 9.6 0.00 0.28 0.28 97 1009.1
20260509130006 48 190 7.8 8.7 0.05 0.28 0.28 97 1008.7
20260509125502 48 188 4.3 6.1 0.05 0.28 0.28 96 1009.1
20260509124958 48 154 2.6 4.3 0.00 0.27 0.27 96 1008.9
20260509124455 48 171 5.2 7.0 0.00 0.27 0.27 96 1009.0
20260509123952 48 189 4.3 5.2 0.00 0.27 0.27 97 1009.1
20260509123450 48 149 2.6 4.3 0.00 0.27 0.27 97 1008.7
20260509122945 47 180 4.3 7.0 0.00 0.27 0.27 97 1008.7
20260509122442 47 182 3.5 5.2 0.00 0.27 0.27 98 1009.0
20260509121939 47 193 2.6 4.3 0.00 0.27 0.27 99 1008.6
20260509121436 47 178 1.7 2.6 0.00 0.27 0.27 99 1009.1
20260509120934 47 195 0.0 0.0 0.00 0.27 0.27 99 1009.0
20260509120431 47 208 1.7 2.6 0.00 0.27 0.27 99 1008.9
20260509115924 47 201 1.7 1.7 0.00 0.27 0.27 99 1009.0
20260509115421 46 167 0.9 1.7 0.00 0.27 0.27 99 1008.9
20260509114918 46 167 0.9 0.9 0.00 0.27 0.27 99 1009.1
20260509114417 46 213 0.0 0.0 0.07 0.27 0.27 99 1009.2
20260509113916 46 212 0.0 0.0 0.07 0.27 0.27 99 1008.7
20260509113413 46 278 0.0 0.9 0.07 0.27 0.27 99 1009.2
20260509112909 46 265 0.0 0.0 0.05 0.26 0.26 99 1009.1
20260509112406 46 258 0.0 0.0 0.05 0.26 0.26 99 1009.3
20260509111904 46 198 0.0 0.0 0.12 0.26 0.26 99 1009.2
20260509111400 46 274 0.0 0.0 0.07 0.25 0.25 99 1009.3
20260509110858 45 202 0.0 0.0 0.05 0.24 0.24 99 1009.1
20260509110354 45 210 0.0 0.0 0.05 0.24 0.24 99 1009.3
20260509105852 45 219 0.0 0.0 0.07 0.23 0.23 99 1009.2
20260509105350 45 208 0.0 0.0 0.07 0.23 0.23 99 1009.1
20260509104847 45 210 0.0 0.0 0.05 0.22 0.22 99 1009.1
20260509104343 45 210 0.0 0.0 0.12 0.22 0.22 99 1009.2
20260509103841 45 207 0.0 0.0 0.07 0.21 0.21 99 1009.4
20260509103338 45 231 0.0 0.0 0.00 0.20 0.20 99 1009.4
20260509102837 45 210 0.0 0.0 0.05 0.20 0.20 99 1009.4
20260509102334 45 209 0.0 0.0 0.05 0.20 0.20 99 1009.0
20260509101829 45 230 0.0 0.0 0.07 0.19 0.19 99 1009.3
20260509101326 45 210 0.0 0.0 0.07 0.19 0.19 99 1009.4
20260509100824 45 245 0.0 0.0 0.00 0.18 0.18 99 1009.4
20260509100321 45 160 0.0 0.0 0.05 0.18 0.18 99 1009.7
20260509095817 45 332 0.9 0.9 0.05 0.18 0.18 99 1009.3
20260509095315 45 245 0.0 0.0 0.00 0.17 0.17 99 1009.4
20260509094812 45 207 0.0 0.0 0.00 0.17 0.17 99 1009.2
20260509094308 45 211 0.0 0.0 0.00 0.17 0.17 99 1009.4
20260509093806 45 201 0.0 0.0 0.00 0.17 0.17 99 1009.2
20260509093303 45 283 0.0 0.9 0.07 0.17 0.17 99 1009.2
20260509092802 45 279 0.0 0.9 0.14 0.17 0.17 99 1009.6
20260509092259 45 249 0.0 0.0 0.12 0.16 0.16 99 1009.5
20260509091757 45 211 0.0 0.0 0.12 0.15 0.15 99 1009.4
20260509091253 45 200 0.0 0.0 0.17 0.15 0.15 99 1009.4
20260509090751 45 210 0.0 0.0 0.05 0.13 0.13 99 1009.5
20260509090247 45 219 0.0 0.0 0.00 0.12 0.12 99 1009.5
20260509085745 45 196 0.0 0.0 0.07 0.12 0.12 99 1009.5
20260509085243 45 332 0.9 0.9 0.07 0.12 0.12 99 1009.6
20260509084739 45 4 0.9 0.9 0.00 0.11 0.11 99 1009.5
20260509084235 45 288 0.9 0.9 0.00 0.11 0.11 99 1009.4
20260509083734 45 35 0.9 0.9 0.00 0.11 0.11 99 1009.5
20260509083230 45 340 0.0 0.9 0.00 0.11 0.11 99 1009.7
20260509082726 45 314 0.0 0.9 0.00 0.11 0.11 99 1009.5
20260509082223 45 88 0.9 0.9 0.00 0.11 0.11 99 1009.5
20260509081720 45 323 0.9 0.9 0.00 0.11 0.11 99 1009.5
20260509081218 45 242 0.0 0.0 0.00 0.11 0.11 99 1009.5
20260509080716 45 228 0.0 0.0 0.00 0.11 0.11 99 1009.4
20260509080213 45 183 0.9 0.9 0.00 0.11 0.11 99 1009.5
20260509075711 45 197 0.0 0.0 0.00 0.11 0.11 99 1009.6
20260509075209 45 245 0.0 0.0 0.00 0.11 0.11 99 1009.6
20260509074705 45 353 0.0 0.9 0.00 0.11 0.11 99 1009.5
20260509074203 45 285 0.9 0.9 0.00 0.11 0.11 99 1009.3
20260509073659 45 271 0.0 0.0 0.00 0.11 0.11 99 1009.3
20260509073155 45 229 0.0 0.0 0.05 0.11 0.11 99 1009.4
20260509072652 45 208 0.0 0.0 0.12 0.11 0.11 99 1009.5
20260509072149 45 205 0.0 0.0 0.07 0.10 0.10 99 1009.8
20260509071645 45 217 0.0 0.0 0.00 0.09 0.09 99 1009.8
20260509071143 45 212 0.0 0.0 0.00 0.09 0.09 99 1009.8
20260509070640 45 206 0.0 0.0 0.00 0.09 0.09 99 1009.9
20260509070136 45 231 0.0 0.0 0.00 0.09 0.09 99 1009.8
20260509065631 45 196 0.0 0.0 0.00 0.09 0.09 99 1009.9
20260509065128 45 204 0.0 0.0 0.00 0.09 0.09 98 1010.0
20260509064625 45 204 0.9 0.9 0.00 0.09 0.09 98 1010.2
20260509064124 45 189 0.0 0.0 0.00 0.09 0.09 98 1009.9
20260509063620 45 247 0.0 0.0 0.05 0.09 0.09 98 1010.0
20260509063116 45 254 0.0 0.0 0.05 0.09 0.09 98 1009.9
20260509062614 45 301 0.9 0.9 0.05 0.09 0.09 98 1010.2
20260509062111 45 228 0.0 0.0 0.00 0.08 0.08 98 1010.1
20260509061608 45 340 1.7 1.7 0.00 0.08 0.08 98 1010.2
20260509061105 45 245 0.0 0.9 0.00 0.08 0.08 98 1010.4
20260509060603 45 205 0.0 0.0 0.07 0.08 0.08 98 1010.6
20260509060058 45 210 0.0 0.0 0.07 0.08 0.08 98 1010.6
20260509055554 45 205 0.0 0.0 0.05 0.07 0.07 98 1010.8
20260509055050 45 234 0.0 0.0 0.05 0.07 0.07 98 1010.8
20260509054547 46 189 0.0 0.0 0.05 0.07 0.07 98 1011.4
20260509054045 45 353 0.9 1.7 0.00 0.06 0.06 98 1011.2
20260509053543 45 270 0.9 0.9 0.00 0.06 0.06 98 1011.3
20260509053039 45 211 0.0 0.0 0.00 0.06 0.06 98 1011.1
20260509052538 46 199 0.0 0.0 0.00 0.06 0.06 98 1011.2
20260509052035 46 303 0.9 0.9 0.07 0.06 0.06 98 1011.4
20260509051533 46 210 0.0 0.0 0.07 0.06 0.06 98 1011.5
20260509051030 46 210 0.0 0.0 0.07 0.05 0.05 98 1011.4
20260509050526 46 201 0.0 0.0 0.07 0.05 0.05 98 1011.4
20260509050023 46 201 0.0 0.0 0.07 0.05 0.05 98 1011.6
20260509045520 46 204 0.0 0.0 0.05 0.04 0.04 98 1011.6
20260509045012 46 205 0.0 0.0 0.05 0.04 0.04 98 1011.6
20260509044509 46 192 0.0 0.0 0.00 0.03 0.03 98 1011.5
20260509044007 46 189 0.0 0.0 0.07 0.03 0.03 97 1011.8
20260509043502 46 194 0.0 0.0 0.07 0.03 0.03 97 1011.7
20260509042957 46 189 0.0 0.0 0.07 0.03 0.03 97 1011.7
20260509042455 46 184 0.9 0.9 0.05 0.02 0.02 97 1011.9
20260509041950 46 193 0.9 0.9 0.05 0.02 0.02 97 1011.8
20260509041448 46 180 0.9 0.9 0.07 0.01 0.01 97 1012.0
20260509040945 46 194 0.9 0.9 0.07 0.01 0.01 97 1012.0
20260509040444 46 200 0.0 0.0 0.00 0.00 0.00 97 1012.0
20260509035940 46 140 0.0 0.0 0.00 0.25 0.25 97 1012.3
20260509035437 46 250 0.0 0.0 0.05 0.25 0.25 97 1012.2
20260509034933 46 190 0.0 0.0 0.05 0.25 0.25 97 1012.1
20260509034431 46 214 0.0 0.0 0.00 0.24 0.24 97 1012.0
20260509033928 46 225 0.0 0.0 0.00 0.24 0.24 97 1012.0
20260509033425 46 219 0.0 0.0 0.00 0.24 0.24 97 1011.8
20260509032922 46 208 0.0 0.0 0.00 0.24 0.24 97 1012.0
20260509032419 46 196 0.0 0.0 0.07 0.24 0.24 97 1011.9
20260509031917 46 201 0.0 0.0 0.07 0.24 0.24 97 1011.8
20260509031414 46 201 0.0 0.0 0.05 0.23 0.23 97 1011.7
20260509030912 46 207 0.0 0.0 0.12 0.23 0.23 97 1011.7
20260509030409 46 201 0.0 0.0 0.07 0.22 0.22 97 1011.8
20260509025906 46 193 0.0 0.0 0.12 0.22 0.22 97 1011.6
20260509025402 46 208 0.0 0.0 0.05 0.21 0.21 97 1012.1
20260509024857 46 199 0.0 0.0 0.07 0.20 0.20 97 1012.1
20260509024353 46 204 0.0 0.0 0.12 0.20 0.20 97 1012.0
20260509023851 46 172 0.0 0.0 0.05 0.19 0.19 96 1012.2
20260509023348 46 207 0.0 0.0 0.07 0.18 0.18 96 1012.4
20260509022844 46 249 0.0 0.0 0.07 0.18 0.18 96 1012.1
20260509022342 46 224 0.0 0.0 0.00 0.17 0.17 96 1012.1
20260509021838 46 218 0.0 0.0 0.00 0.17 0.17 96 1012.1
20260509021335 46 238 0.0 0.0 0.07 0.17 0.17 96 1011.9
20260509020833 46 220 0.0 0.0 0.07 0.17 0.17 96 1011.8
20260509020331 46 274 0.0 0.0 0.05 0.16 0.16 95 1011.8
20260509015823 47 184 0.0 0.0 0.05 0.16 0.16 95 1011.7
20260509015321 47 232 0.0 0.0 0.00 0.15 0.15 95 1012.1
20260509014817 47 132 0.0 0.0 0.00 0.15 0.15 94 1011.7
20260509014314 47 224 0.9 0.9 0.07 0.15 0.15 94 1012.1
20260509013811 47 190 0.0 0.0 0.07 0.15 0.15 94 1011.8
20260509013307 47 189 0.9 0.9 0.00 0.14 0.14 93 1011.9
20260509012803 47 178 1.7 1.7 0.05 0.14 0.14 93 1011.9
20260509012300 47 204 1.7 1.7 0.05 0.14 0.14 93 1012.1
20260509011757 47 185 1.7 1.7 0.07 0.13 0.13 92 1011.8
20260509011254 47 171 0.0 0.9 0.07 0.13 0.13 92 1011.9
20260509010752 47 145 0.0 0.0 0.12 0.13 0.13 92 1011.9
20260509010249 47 265 0.0 0.0 0.05 0.12 0.12 92 1011.7
20260509005746 48 204 0.9 0.9 0.07 0.11 0.11 92 1011.5
20260509005238 48 231 0.9 0.9 0.12 0.11 0.11 90 1011.3
20260509004737 48 193 0.0 0.9 0.12 0.10 0.10 90 1011.4
20260509004235 48 201 1.7 1.7 0.12 0.09 0.09 89 1011.5
20260509003733 49 170 0.9 1.7 0.12 0.08 0.08 87 1011.4
20260509003230 49 200 1.7 1.7 0.07 0.07 0.07 86 1011.1
20260509002727 50 194 0.9 0.9 0.00 0.06 0.06 85 1011.3
20260509002225 50 165 0.9 0.9 0.00 0.06 0.06 84 1011.1
20260509001723 50 154 1.7 2.6 0.00 0.06 0.06 84 1010.8
20260509001218 50 175 1.7 1.7 0.00 0.06 0.06 83 1011.1
20260509000716 50 168 3.5 4.3 0.00 0.06 0.06 83 1011.3
20260509000213 50 174 2.6 4.3 0.00 0.06 0.06 84 1011.0
20260508235710 50 160 3.5 5.2 0.00 0.06 0.06 84 1010.8
20260508235206 50 191 2.6 2.6 0.00 0.06 0.06 84 1010.8
20260508234704 50 174 2.6 4.3 0.00 0.06 0.06 85 1010.6
20260508234200 50 174 2.6 2.6 0.00 0.06 0.06 85 1010.6
20260508233700 50 140 2.6 2.6 0.00 0.06 0.06 85 1010.8
20260508233157 50 170 2.6 4.3 0.00 0.06 0.06 86 1010.8
20260508232654 50 166 1.7 2.6 0.00 0.06 0.06 86 1010.8
20260508232151 50 167 0.9 1.7 0.00 0.06 0.06 85 1010.7
20260508231649 50 135 5.2 6.1 0.00 0.06 0.06 86 1010.7
20260508231145 50 171 5.2 7.0 0.00 0.06 0.06 86 1010.6
20260508230642 50 144 4.3 6.1 0.00 0.06 0.06 86 1010.8
20260508230138 50 169 2.6 5.2 0.00 0.06 0.06 86 1011.0
20260508225637 51 130 2.6 5.2 0.00 0.06 0.06 86 1011.0
20260508225132 51 192 7.8 9.6 0.00 0.06 0.06 86 1010.7
20260508224630 51 194 2.6 4.3 0.00 0.06 0.06 86 1010.6
20260508224128 51 123 4.3 7.0 0.00 0.06 0.06 86 1010.6
20260508223626 51 201 3.5 6.1 0.00 0.06 0.06 86 1010.6
20260508223122 51 184 7.8 9.6 0.00 0.06 0.06 86 1010.4
20260508222620 51 145 4.3 6.1 0.00 0.06 0.06 86 1010.5
20260508222116 51 178 2.6 2.6 0.00 0.06 0.06 85 1010.6
20260508221613 51 164 5.2 7.0 0.00 0.06 0.06 85 1010.4
20260508221109 51 193 5.2 7.8 0.00 0.06 0.06 85 1010.3
20260508220606 51 230 3.5 5.2 0.00 0.06 0.06 85 1010.3
20260508215559 51 184 3.5 4.3 0.00 0.06 0.06 85 1010.5
20260508215055 51 195 6.1 8.7 0.00 0.06 0.06 85 1010.6
20260508214553 51 180 5.2 7.0 0.00 0.06 0.06 85 1010.6
20260508214049 52 166 6.1 7.8 0.00 0.06 0.06 85 1010.4
20260508213546 51 204 6.1 7.8 0.00 0.06 0.06 86 1010.4
20260508213042 50 167 6.1 8.7 0.00 0.06 0.06 88 1010.4